{"data":{"norad_id":67768,"intl_designator":"2026-030E","name":"KUIPER-00180","alt_names":[],"object_type":"PAYLOAD","status":"ACTIVE","operator":null,"country":"US","launch_date":"2026-02-12","launch_site_code":"FRGUI","launch_vehicle":null,"mission":null,"orbit_class":"UNKNOWN","rcs_meters":null,"size_class":null,"mass_kg":null,"dimensions":null,"purposes":[],"wikipedia_slug":null,"has_3d_model":false,"image_url":null,"decayed_at":null,"tle_current":{"epoch":"2026-05-24T23:10:59.522016Z","epoch_age_seconds":71826,"freshness":"FRESH","line1":"1 67768U 26030E   26144.96596669 -.00000315  00000+0 -12273-4 0  9997","line2":"2 67768  51.8972 230.8234 0000331  94.6944 265.4056 14.79936072 16545","mean_motion":14.79936072,"eccentricity":3.31e-5,"inclination_deg":51.8972,"raan_deg":230.8234,"arg_perigee_deg":94.6944,"mean_anomaly_deg":265.4056,"bstar":-1.2273e-5,"rev_number":1654,"period_min":97.301500196152,"perigee_km":629.29397800598,"apogee_km":629.75788529205,"semimajor_km":7007.662931649,"source":"CELESTRAK","updated_at":"2026-05-25T13:38:07.254831Z"}}}